Location: Newark
(49.8969°N, 3.3422°E)
Time: 22:43:59
(UTC+00:00)

Envisat - Pass Details

Date: 10 December 2019
Orbit: 764 x 766 km, 98.1° (Epoch: 21 January)

Event Time Altitude Azimuth Distance (km) Brightness Sun altitude
Rises 19:18:02 0° 221° (SW) 3,225 6.7 -33.1°
Reaches altitude 10° 19:21:50 10° 250° (WSW) 2,306 6.2 -33.7°
Maximum altitude 19:23:56 12° 275° (W) 2,141 6.1 -34.0°
Drops below altitude 10° 19:26:02 10° 300° (WNW) 2,313 6.1 -34.3°
Sets 19:29:53 0° 329° (NNW) 3,246 6.7 -35.0°
